Location: Erba
(45.8000°N, 9.2500°E)
Time: 12:22:17
(UTC+02:00)

ISS - Pass Details

Date: 02 July 2020
Orbit: 417 x 420 km, 51.6° (Epoch: 02 July)

Event Time Altitude Azimuth Distance (km) Brightness Sun altitude
Exits shadow 04:55:32 - 252° (WSW) 1,755 -1.2 -6.5°
Reaches altitude 10° 04:56:11 10° 254° (WSW) 1,492 -1.5 -6.5°
Maximum altitude 04:59:30 62° 336° (NNW) 472 -3.4 -6.0°
Drops below altitude 10° 05:02:51 10° 58° (ENE) 1,496 0.8 -5.6°
Sets 05:04:58 0° 62° (ENE) 2,362 2.1 -5.3°
